WD9EKA Weather Reports


Display with metric or nautical units.
time (UTC)temp
F
wind
direction
speed
MPH
gust
MPH
rain 1hr
in
rain 24hr
in
rain mn
in
humidity
%
barometer
mb
20260906095150 70 197 0.0 2.0 0.00 0.00 0.00 99 1009.8
20260906094630 70 318 1.0 3.0 0.00 0.00 0.00 99 1009.7
20260906094110 70 149 0.0 0.0 0.00 0.00 0.00 99 1009.7
20260906093550 70 291 0.0 0.0 0.00 0.00 0.00 99 1009.5
20260906093030 70 103 0.0 0.0 0.00 0.00 0.00 99 1009.7
20260906092510 70 92 0.0 0.0 0.00 0.00 0.00 99 1009.7
20260906091950 70 94 0.0 2.0 0.00 0.00 0.00 99 1009.6
20260906091430 70 35 0.0 0.0 0.00 0.00 0.00 99 1009.4
20260906090855 70 140 1.0 2.0 0.00 0.00 0.00 99 1009.4
20260906090333 70 79 0.0 0.0 0.00 0.00 0.00 99 1009.5
20260906085815 70 203 0.0 0.0 0.00 0.00 0.00 99 1009.2
20260906085255 70 53 0.0 0.0 0.00 0.00 0.00 99 1009.3
20260906084734 70 122 0.0 0.0 0.00 0.00 0.00 99 1009.3
20260906084215 70 101 0.0 0.0 0.00 0.00 0.00 99 1009.3
20260906083654 70 113 0.0 0.0 0.00 0.00 0.00 99 1009.5
20260906083133 70 156 0.0 0.0 0.00 0.00 0.00 99 1009.4
20260906082614 70 287 0.0 0.0 0.00 0.00 0.00 99 1009.2
20260906082054 70 188 0.0 0.0 0.00 0.00 0.00 99 1009.4
20260906081533 70 43 0.0 0.0 0.00 0.00 0.00 99 1009.4
20260906081015 70 9 0.0 0.0 0.00 0.00 0.00 99 1009.4
20260906080454 70 190 0.0 0.0 0.00 0.00 0.00 99 1009.2
20260906075933 70 49 0.0 0.0 0.00 0.00 0.00 99 1009.3
20260906075414 70 320 0.0 0.0 0.00 0.00 0.00 99 1009.3
20260906074855 70 59 0.0 0.0 0.00 0.00 0.00 99 1008.8
20260906074333 70 88 0.0 0.0 0.00 0.00 0.00 99 1009.1
20260906073815 70 211 0.0 0.0 0.00 0.00 0.00 99 1009.0
20260906072733 70 48 0.0 0.0 0.00 0.00 0.00 99 1009.3
20260906072215 70 169 0.0 0.0 0.00 0.00 0.00 99 1009.0
20260906071118 70 56 0.0 0.0 0.00 0.00 0.00 99 1009.2
20260906070559 70 320 0.0 0.0 0.00 0.00 0.00 99 1009.2
20260906070039 70 321 0.0 0.0 0.00 0.00 0.00 99 1009.0
20260906065519 70 321 0.0 0.0 0.00 0.00 0.00 99 1009.1
20260906064959 70 194 0.0 0.0 0.00 0.00 0.00 99 1009.2
20260906064439 70 194 0.0 0.0 0.00 0.00 0.00 99 1009.3
20260906063918 70 79 0.0 0.0 0.00 0.00 0.00 99 1009.2
20260906063359 70 66 0.0 0.0 0.00 0.00 0.00 99 1009.4
20260906062319 70 161 0.0 0.0 0.00 0.00 0.00 99 1009.3
20260906061759 70 161 0.0 0.0 0.00 0.00 0.00 99 1009.4
20260906061233 70 162 0.0 0.0 0.00 0.00 0.00 99 1009.5
20260906060719 70 176 0.0 0.0 0.00 0.00 0.00 99 1009.4
20260906060159 71 208 0.0 0.0 0.00 0.00 0.00 99 1009.4
20260906054433 71 225 0.0 0.0 0.00 0.00 0.00 98 1009.2
20260906053833 71 225 0.0 0.0 0.00 0.00 0.00 98 1009.6
20260906053327 71 225 0.0 0.0 0.00 0.00 0.00 98 1009.4
20260906052807 72 243 0.0 1.0 0.00 0.00 0.00 97 1009.3
20260906052247 72 78 0.0 0.0 0.00 0.00 0.00 97 1009.3
20260906051733 72 70 0.0 0.0 0.00 0.00 0.00 97 1009.4
20260906051133 72 98 0.0 0.0 0.00 0.00 0.00 97 1009.2
20260906050533 72 271 0.0 0.0 0.00 0.00 0.00 96 1009.2
20260906044734 73 184 0.0 1.0 0.00 0.00 0.00 95 1009.5
20260906044133 73 121 0.0 1.0 0.00 0.00 0.00 95 1009.1
20260906043533 73 21 0.0 1.0 0.00 0.00 0.00 95 1009.1
20260906042933 73 83 0.0 1.0 0.00 0.00 0.00 94 1009.1
20260906042333 73 118 0.0 0.0 0.00 0.00 0.00 94 1009.0
20260906041134 74 106 0.0 0.0 0.00 0.00 0.00 92 1008.8
20260906040533 74 103 0.0 2.0 0.00 0.00 0.00 92 1009.0
20260906034733 75 309 2.0 3.0 0.00 0.00 0.00 92 1009.1
20260906034133 75 233 0.0 0.0 0.00 0.00 0.00 91 1009.1
20260906033533 76 98 0.0 0.0 0.00 0.00 0.00 91 1008.8
20260906032934 76 175 0.0 0.0 0.00 0.00 0.00 90 1008.9
20260906031134 77 179 1.0 2.0 0.00 0.00 0.00 88 1008.6
20260906030533 78 142 0.0 2.0 0.00 0.00 0.00 88 1008.6
20260906025933 78 184 0.0 0.0 0.00 0.00 0.00 87 1008.6
20260906025333 78 96 0.0 1.0 0.00 0.00 0.00 86 1008.5
20260906024733 79 344 0.0 2.0 0.00 0.00 0.00 86 1008.6
20260906024133 79 154 1.0 2.0 0.00 0.00 0.00 86 1008.7
20260906023533 79 103 0.0 0.0 0.00 0.00 0.00 86 1008.5
20260906022933 79 83 0.0 0.0 0.00 0.00 0.00 86 1008.6
20260906022333 79 56 0.0 0.0 0.00 0.00 0.00 86 1008.2
20260906021733 79 55 0.0 1.0 0.00 0.00 0.00 85 1008.2
20260906021133 80 229 1.0 2.0 0.00 0.00 0.00 85 1007.9
20260906020533 80 148 0.0 0.0 0.00 0.00 0.00 84 1008.0
20260906015933 80 87 2.0 4.0 0.00 0.00 0.00 84 1008.0
20260906015334 80 243 1.0 3.0 0.00 0.00 0.00 85 1007.9
20260906014733 81 190 0.0 1.0 0.00 0.00 0.00 87 1007.8
20260906014133 81 106 1.0 2.0 0.00 0.00 0.00 88 1007.7
20260906013533 81 211 1.0 2.0 0.00 0.00 0.00 90 1007.8
20260906012933 81 172 0.0 1.0 0.00 0.00 0.00 91 1007.4
20260906012333 81 35 0.0 0.0 0.00 0.00 0.00 90 1007.3
20260906011733 81 187 1.0 2.0 0.00 0.00 0.00 91 1007.2
20260906011133 81 182 0.0 0.0 0.00 0.00 0.00 90 1007.2
20260906010615 81 352 0.0 0.0 0.00 0.00 0.00 90 1007.0
20260906010055 81 202 0.0 0.0 0.00 0.00 0.00 92 1007.2
20260906005533 80 30 0.0 0.0 0.00 0.00 0.00 93 1006.7
20260906005015 80 228 0.0 2.0 0.00 0.00 0.00 93 1006.9
20260906004456 81 228 0.0 0.0 0.00 0.00 0.00 92 1006.9
20260906003431 81 218 0.0 0.0 0.00 0.00 0.00 91 1006.9
20260906002911 81 218 0.0 0.0 0.00 0.00 0.00 90 1006.8
20260906002352 82 218 0.0 0.0 0.00 0.00 0.00 90 1006.8
20260906001832 82 218 0.0 0.0 0.00 0.00 0.00 89 1007.0
20260906001312 83 218 0.0 0.0 0.00 0.00 0.00 88 1006.9
20260906000751 84 218 0.0 0.0 0.00 0.00 0.00 86 1006.8
20260906000234 84 218 0.0 0.0 0.00 0.00 0.00 85 1006.7
20260905235633 85 218 0.0 0.0 0.00 0.00 0.00 83 1006.8
20260905235119 86 218 0.0 0.0 0.00 0.00 0.00 82 1006.8
20260905234559 87 218 0.0 0.0 0.00 0.00 0.00 81 1006.5
20260905233519 88 341 0.0 0.0 0.00 0.00 0.00 79 1006.5
20260905231920 89 342 0.0 0.0 0.00 0.00 0.00 75 1006.7
20260905231400 90 341 0.0 0.0 0.00 0.00 0.00 74 1006.4
20260905230833 91 341 0.0 0.0 0.00 0.00 0.00 71 1006.6
20260905230319 91 357 0.0 0.0 0.00 0.00 0.00 72 1006.4
20260905225800 92 357 0.0 1.0 0.00 0.00 0.00 68 1006.7
20260905225240 93 47 0.0 1.0 0.00 0.00 0.00 68 1006.3
20260905224720 92 203 0.0 1.0 0.00 0.00 0.00 67 1006.3
20260905224200 93 209 0.0 0.0 0.00 0.00 0.00 68 1006.2
20260905223119 94 226 0.0 1.0 0.00 0.00 0.00 65 1006.2
20260905222600 93 96 0.0 0.0 0.00 0.00 0.00 65 1006.7
20260905222040 93 110 0.0 0.0 0.00 0.00 0.00 68 1006.2
20260905221519 94 311 0.0 1.0 0.00 0.00 0.00 64 1006.5
20260905220440 95 219 0.0 1.0 0.00 0.00 0.00 63 1006.4
20260905215919 96 277 0.0 1.0 0.00 0.00 0.00 61 1006.4
20260905215400 95 272 0.0 1.0 0.00 0.00 0.00 59 1006.3
20260905214840 95 229 1.0 1.0 0.00 0.00 0.00 60 1006.4
20260905214320 95 62 0.0 2.0 0.00 0.00 0.00 62 1006.4
20260905213800 96 301 0.0 0.0 0.00 0.00 0.00 62 1006.3
20260905213240 96 285 1.0 5.0 0.00 0.00 0.00 60 1006.3
20260905212200 96 235 0.0 0.0 0.00 0.00 0.00 59 1006.3
20260905211633 97 251 0.0 1.0 0.00 0.00 0.00 57 1006.2
20260905211120 97 43 1.0 2.0 0.00 0.00 0.00 58 1006.5
20260905210600 97 344 2.0 3.0 0.00 0.00 0.00 55 1006.4
20260905205520 96 276 1.0 2.0 0.00 0.00 0.00 60 1006.5
20260905205000 96 244 1.0 1.0 0.00 0.00 0.00 56 1006.6
20260905204433 96 281 4.0 5.0 0.00 0.00 0.00 56 1006.3
20260905203920 96 276 4.0 5.0 0.00 0.00 0.00 55 1006.8
20260905202834 96 324 0.0 0.0 0.00 0.00 0.00 58 1007.0
20260905202320 95 338 2.0 3.0 0.00 0.00 0.00 61 1006.8
20260905201800 95 242 2.0 4.0 0.00 0.00 0.00 59 1007.0
20260905201233 96 51 0.0 0.0 0.00 0.00 0.00 57 1006.9
20260905200720 96 52 0.0 1.0 0.00 0.00 0.00 56 1007.0
20260905200200 97 237 3.0 5.0 0.00 0.00 0.00 55 1006.8
20260905195633 96 161 0.0 2.0 0.00 0.00 0.00 57 1007.1
20260905195120 96 260 1.0 3.0 0.00 0.00 0.00 56 1006.9
20260905194600 97 281 3.0 4.0 0.00 0.00 0.00 54 1007.1
20260905194033 97 342 2.0 3.0 0.00 0.00 0.00 54 1007.1
20260905193520 96 157 2.0 3.0 0.00 0.00 0.00 56 1006.9
20260905193000 96 252 4.0 5.0 0.00 0.00 0.00 56 1007.1
20260905191400 96 271 0.0 0.0 0.00 0.00 0.00 57 1007.3
20260905190833 96 333 2.0 3.0 0.00 0.00 0.00 55 1007.3
20260905190320 97 264 3.0 6.0 0.00 0.00 0.00 54 1007.2
20260905185800 96 282 2.0 2.0 0.00 0.00 0.00 55 1007.3
20260905185233 96 264 5.0 6.0 0.00 0.00 0.00 56 1007.4
20260905184720 96 249 2.0 3.0 0.00 0.00 0.00 56 1007.5
20260905183633 96 308 4.0 6.0 0.00 0.00 0.00 55 1007.7
20260905183120 96 234 3.0 4.0 0.00 0.00 0.00 56 1007.5
20260905182600 96 243 2.0 2.0 0.00 0.00 0.00 56 1007.6
20260905182033 95 216 1.0 1.0 0.00 0.00 0.00 58 1007.9
20260905181520 95 248 2.0 3.0 0.00 0.00 0.00 57 1008.0
20260905181000 95 0 0.0 1.0 0.00 0.00 0.00 61 1007.9
20260905180433 95 266 4.0 4.0 0.00 0.00 0.00 62 1008.1
20260905175920 94 18 2.0 4.0 0.00 0.00 0.00 61 1008.0
20260905174833 95 300 2.0 2.0 0.00 0.00 0.00 61 1008.1
20260905174320 94 274 5.0 6.0 0.00 0.00 0.00 62 1008.1
20260905173800 94 236 2.0 3.0 0.00 0.00 0.00 62 1008.1
20260905173233 94 262 2.0 3.0 0.00 0.00 0.00 63 1008.2
20260905172720 95 240 2.0 4.0 0.00 0.00 0.00 62 1008.2
20260905172200 94 273 0.0 0.0 0.00 0.00 0.00 61 1008.3
20260905171633 94 251 4.0 4.0 0.00 0.00 0.00 61 1008.3
20260905171120 94 230 1.0 2.0 0.00 0.00 0.00 62 1008.3
20260905170600 94 215 2.0 3.0 0.00 0.00 0.00 64 1008.5
20260905170033 94 266 3.0 4.0 0.00 0.00 0.00 62 1008.6
20260905165520 94 251 1.0 2.0 0.00 0.00 0.00 65 1008.5
20260905164433 93 251 0.0 1.0 0.00 0.00 0.00 65 1008.5
20260905163904 93 243 0.0 0.0 0.00 0.00 0.00 65 1008.6
20260905163333 93 210 2.0 3.0 0.00 0.00 0.00 64 1008.9
20260905162824 93 163 0.0 1.0 0.00 0.00 0.00 64 1008.8
20260905162306 93 215 1.0 2.0 0.00 0.00 0.00 64 1008.8
20260905161733 93 142 0.0 0.0 0.00 0.00 0.00 64 1008.9
20260905161224 92 94 0.0 0.0 0.00 0.00 0.00 65 1008.9
20260905160705 92 92 0.0 1.0 0.00 0.00 0.00 65 1008.8
20260905155624 91 87 0.0 1.0 0.00 0.00 0.00 69 1008.9
20260905155105 90 87 2.0 2.0 0.00 0.00 0.00 69 1008.9
20260905154533 90 83 0.0 0.0 0.00 0.00 0.00 71 1008.9
20260905154024 89 176 2.0 3.0 0.00 0.00 0.00 71 1008.8
20260905153504 89 141 3.0 4.0 0.00 0.00 0.00 72 1008.8
20260905152933 90 115 0.0 0.0 0.00 0.00 0.00 72 1008.9
20260905152424 88 148 1.0 2.0 0.00 0.00 0.00 70 1009.0
20260905151904 89 111 0.0 2.0 0.00 0.00 0.00 71 1009.1
20260905151333 88 128 2.0 3.0 0.00 0.00 0.00 72 1009.1
20260905150304 89 144 1.0 3.0 0.00 0.00 0.00 73 1009.1
20260905145744 88 42 2.0 3.0 0.00 0.00 0.00 73 1009.2
20260905145233 88 179 0.0 1.0 0.00 0.00 0.00 74 1009.2
20260905144720 88 222 0.0 0.0 0.00 0.00 0.00 76 1009.0
20260905144201 88 222 0.0 0.0 0.00 0.00 0.00 74 1009.0
20260905143633 90 222 0.0 0.0 0.00 0.00 0.00 72 1008.9
20260905143120 89 222 0.0 0.0 0.00 0.00 0.00 73 1008.6
20260905142600 89 222 0.0 0.0 0.00 0.00 0.00 73 1008.9
20260905142033 89 222 0.0 0.0 0.00 0.00 0.00 72 1008.8
20260905141520 87 222 0.0 0.0 0.00 0.00 0.00 73 1008.8
20260905141000 87 223 0.0 1.0 0.00 0.00 0.00 76 1008.8
20260905140433 87 222 0.0 0.0 0.00 0.00 0.00 78 1008.9
20260905135920 85 223 0.0 0.0 0.00 0.00 0.00 78 1008.8
20260905135401 85 223 0.0 0.0 0.00 0.00 0.00 80 1008.8
20260905134833 85 223 0.0 0.0 0.00 0.00 0.00 78 1008.7
20260905134320 84 223 0.0 0.0 0.00 0.00 0.00 79 1008.8
20260905133233 82 223 0.0 0.0 0.00 0.00 0.00 84 1008.6
20260905132633 81 223 0.0 0.0 0.00 0.00 0.00 90 1008.8
20260905131533 80 223 0.0 0.0 0.00 0.00 0.00 98 1008.9
20260905131016 78 223 0.0 0.0 0.00 0.00 0.00 99 1008.9
20260905130456 78 223 0.0 0.0 0.00 0.00 0.00 99 1008.9
20260905125933 77 223 0.0 0.0 0.00 0.00 0.00 99 1008.7
20260905125333 76 223 0.0 0.0 0.00 0.00 0.00 99 1008.8
20260905124733 75 223 0.0 0.0 0.00 0.00 0.00 99 1008.7
20260905124133 74 223 0.0 0.0 0.00 0.00 0.00 99 1009.0
20260905123533 74 223 0.0 0.0 0.00 0.00 0.00 99 1008.8
20260905123033 73 223 0.0 0.0 0.00 0.00 0.00 99 1009.0
20260905122513 72 223 0.0 0.0 0.00 0.00 0.00 99 1008.7
20260905121952 72 223 0.0 0.0 0.00 0.00 0.00 99 1008.9
20260905121433 72 223 0.0 0.0 0.00 0.00 0.00 99 1008.8
20260905120913 72 223 0.0 0.0 0.00 0.00 0.00 99 1008.8
20260905120333 71 223 0.0 0.0 0.00 0.00 0.00 99 1008.4
20260905115733 71 223 0.0 0.0 0.00 0.00 0.00 99 1008.8
20260905115133 71 223 0.0 0.0 0.00 0.00 0.00 99 1008.6
20260905114533 71 223 0.0 0.0 0.00 0.00 0.00 99 1008.5
20260905113933 71 223 0.0 0.0 0.00 0.00 0.00 99 1008.5
20260905112733 70 223 0.0 0.0 0.00 0.00 0.00 99 1008.6
20260905111624 70 223 0.0 0.0 0.00 0.00 0.00 99 1008.5
20260905110533 71 223 0.0 0.0 0.00 0.00 0.00 99 1008.3
20260905110025 71 223 0.0 0.0 0.00 0.00 0.00 99 1008.1
20260905105505 71 223 0.0 0.0 0.00 0.00 0.00 99 1008.4
20260905104933 71 223 0.0 0.0 0.00 0.00 0.00 99 1008.3
20260905103905 71 223 0.0 0.0 0.00 0.00 0.00 99 1008.4
20260905103333 71 223 0.0 0.0 0.00 0.00 0.00 99 1008.3
20260905102733 71 223 0.0 0.0 0.00 0.00 0.00 99 1008.2
20260905102133 71 223 0.0 0.0 0.00 0.00 0.00 99 1008.3
20260905101533 71 223 0.0 0.0 0.00 0.00 0.00 99 1008.2
20260905101016 71 223 0.0 0.0 0.00 0.00 0.00 99 1008.3
20260905095933 71 223 0.0 0.0 0.00 0.00 0.00 99 1008.3